When you browse on this site, cookies collect data to enhance your experience and personalize the content and advertising you see.
Visit our Privacy Policy to learn more. By continuing to use the site, you agree to this use of cookies and data.
  • In Hungary
  • List of Countries
  • For 7 days
  • Water Temperature
  • Weather Map
  • News
  • Weather Widgets
  • user-avatar
    Login

    Hourly Weather Glinki

    Today, 14 October, Monday

    Time Temperature Precipitation Wind Pressure Humidity
    00:00 +8°C° 0 mm 5 mps 745 mmHg 92%
    01:00 +7°C° 0 mm 5 mps 746 mmHg 92%
    02:00 +7°C° 0 mm 5 mps 746 mmHg 93%
    03:00 +7°C° 0 mm 4 mps 747 mmHg 93%
    04:00 +7°C° 0 mm 4 mps 747 mmHg 94%
    05:00 +6°C° 0 mm 4 mps 747 mmHg 94%
    06:00 +6°C° 0 mm 4 mps 747 mmHg 94%
    07:00 +6°C° 0 mm 4 mps 748 mmHg 92%
    08:00 +7°C° 0 mm 4 mps 748 mmHg 90%
    09:00 +7°C° 0 mm 4 mps 748 mmHg 88%
    10:00 +10°C° 0 mm 4 mps 748 mmHg 82%
    11:00 +11°C° 0 mm 4 mps 748 mmHg 77%
    12:00 +12°C° 0 mm 4 mps 748 mmHg 71%
    13:00 +12°C° 0 mm 4 mps 748 mmHg 72%
    14:00 +12°C° 0 mm 4 mps 747 mmHg 72%
    15:00 +13°C° 0 mm 4 mps 747 mmHg 73%
    16:00 +13°C° 0 mm 5 mps 746 mmHg 78%
    17:00 +13°C° 0 mm 5 mps 745 mmHg 83%
    18:00 +14°C° 0 mm 6 mps 744 mmHg 88%
    19:00 +14°C° 0 mm 6 mps 744 mmHg 85%
    20:00 +15°C° 0 mm 7 mps 743 mmHg 82%
    21:00 +15°C° 0 mm 8 mps 743 mmHg 79%
    22:00 +15°C° 0 mm 8 mps 743 mmHg 79%
    23:00 +14°C° 0 mm 7 mps 742 mmHg 79%

    Tomorrow, 15 October, Tuesday

    Time Temperature Precipitation Wind Pressure Humidity
    00:00 +14°C° 0 mm 7 mps 742 mmHg 79%
    01:00 +12°C° 0 mm 7 mps 742 mmHg 81%
    02:00 +12°C° 0 mm 7 mps 742 mmHg 83%
    03:00 +12°C° 0 mm 7 mps 742 mmHg 84%
    04:00 +11°C° 0 mm 6 mps 743 mmHg 86%
    05:00 +11°C° 0 mm 6 mps 743 mmHg 88%
    06:00 +11°C° 0 mm 6 mps 743 mmHg 89%
    07:00 +11°C° 0 mm 6 mps 743 mmHg 85%
    08:00 +11°C° 0 mm 6 mps 744 mmHg 80%
    09:00 +11°C° 0 mm 6 mps 745 mmHg 75%
    10:00 +13°C° 0 mm 6 mps 745 mmHg 74%
    11:00 +13°C° 0 mm 6 mps 746 mmHg 72%
    12:00 +14°C° 0 mm 6 mps 747 mmHg 71%
    13:00 +13°C° 0 mm 5 mps 747 mmHg 71%
    14:00 +13°C° 0 mm 5 mps 748 mmHg 71%
    15:00 +13°C° 0 mm 5 mps 748 mmHg 71%
    16:00 +12°C° 0 mm 4 mps 749 mmHg 74%
    17:00 +11°C° 0 mm 3 mps 749 mmHg 78%
    18:00 +10°C° 0 mm 3 mps 749 mmHg 82%
    19:00 +9°C° 0 mm 3 mps 750 mmHg 84%
    20:00 +8°C° 0 mm 3 mps 751 mmHg 86%
    21:00 +7°C° 0 mm 3 mps 751 mmHg 88%
    22:00 +7°C° 0 mm 2 mps 751 mmHg 88%
    23:00 +6°C° 0 mm 2 mps 752 mmHg 88%

    Day after tomorrow, 16 October, Wednesday

    Time Temperature Precipitation Wind Pressure Humidity
    00:00 +5°C° 0 mm 2 mps 752 mmHg 89%
    01:00 +5°C° 0 mm 2 mps 752 mmHg 89%
    02:00 +5°C° 0 mm 2 mps 753 mmHg 89%
    03:00 +4°C° 0 mm 2 mps 753 mmHg 89%
    04:00 +4°C° 0 mm 2 mps 753 mmHg 89%
    05:00 +4°C° 0 mm 2 mps 753 mmHg 89%
    06:00 +3°C° 0 mm 2 mps 754 mmHg 88%
    07:00 +4°C° 0 mm 2 mps 754 mmHg 86%
    08:00 +4°C° 0 mm 2 mps 754 mmHg 83%
    09:00 +4°C° 0 mm 3 mps 754 mmHg 80%
    10:00 +5°C° 0 mm 3 mps 754 mmHg 77%
    11:00 +7°C° 0 mm 3 mps 754 mmHg 73%
    12:00 +8°C° 0 mm 3 mps 754 mmHg 70%
    13:00 +9°C° 0 mm 3 mps 754 mmHg 70%
    14:00 +10°C° 0 mm 3 mps 753 mmHg 70%
    15:00 +10°C° 0 mm 4 mps 753 mmHg 70%
    16:00 +8°C° 0 mm 4 mps 753 mmHg 74%
    17:00 +9°C° 0 mm 3 mps 752 mmHg 77%
    18:00 +8°C° 0 mm 3 mps 752 mmHg 81%
    19:00 +7°C° 0 mm 4 mps 752 mmHg 79%
    20:00 +7°C° 0 mm 5 mps 751 mmHg 77%
    21:00 +7°C° 0 mm 5 mps 751 mmHg 75%
    22:00 +7°C° 0 mm 5 mps 751 mmHg 76%
    23:00 +7°C° 0 mm 6 mps 750 mmHg 76%

    17 October, Thursday

    Time Temperature Precipitation Wind Pressure Humidity
    00:00 +7°C° 0 mm 6 mps 750 mmHg 77%
    01:00 +7°C° 0 mm 6 mps 749 mmHg 80%
    02:00 +7°C° 0 mm 6 mps 749 mmHg 82%
    03:00 +7°C° 0 mm 6 mps 749 mmHg 85%
    04:00 +7°C° 0 mm 6 mps 748 mmHg 86%
    05:00 +7°C° 0 mm 6 mps 748 mmHg 87%
    06:00 +7°C° 0 mm 6 mps 747 mmHg 88%
    07:00 +8°C° 0 mm 6 mps 747 mmHg 87%
    08:00 +9°C° 0 mm 6 mps 747 mmHg 85%
    09:00 +9°C° 0 mm 7 mps 746 mmHg 84%
    10:00 +11°C° 0 mm 7 mps 746 mmHg 80%
    11:00 +12°C° 0 mm 7 mps 746 mmHg 75%
    12:00 +14°C° 0 mm 7 mps 746 mmHg 71%
    13:00 +15°C° 0 mm 6 mps 746 mmHg 71%
    14:00 +15°C° 0 mm 6 mps 745 mmHg 71%
    15:00 +15°C° 0 mm 5 mps 745 mmHg 72%
    16:00 +14°C° 0 mm 5 mps 745 mmHg 76%
    17:00 +13°C° 0 mm 5 mps 745 mmHg 81%
    18:00 +12°C° 0 mm 4 mps 745 mmHg 85%
    19:00 +12°C° 0 mm 4 mps 745 mmHg 87%
    20:00 +12°C° 0 mm 4 mps 745 mmHg 89%
    21:00 +11°C° 0 mm 4 mps 745 mmHg 91%
    22:00 +11°C° 0 mm 4 mps 745 mmHg 92%
    23:00 +11°C° 0 mm 4 mps 745 mmHg 93%

    18 October, Friday

    Time Temperature Precipitation Wind Pressure Humidity
    00:00 +10°C° 0 mm 3 mps 745 mmHg 93%
    01:00 +10°C° 0.1 mm 3 mps 745 mmHg 93%
    02:00 +10°C° 0.1 mm 3 mps 746 mmHg 93%
    03:00 +10°C° 0.1 mm 3 mps 746 mmHg 93%
    04:00 +10°C° 0.1 mm 4 mps 747 mmHg 91%
    05:00 +8°C° 0.1 mm 4 mps 747 mmHg 89%
    06:00 +7°C° 0.1 mm 4 mps 748 mmHg 87%
    07:00 +7°C° 0 mm 5 mps 748 mmHg 85%
    08:00 +6°C° 0 mm 5 mps 749 mmHg 83%
    09:00 +5°C° 0 mm 5 mps 750 mmHg 81%
    10:00 +5°C° 0 mm 4 mps 751 mmHg 77%
    11:00 +6°C° 0 mm 4 mps 751 mmHg 74%
    12:00 +6°C° 0 mm 4 mps 752 mmHg 70%
    13:00 +6°C° 0 mm 4 mps 752 mmHg 66%
    14:00 +6°C° 0 mm 4 mps 752 mmHg 62%
    15:00 +6°C° 0 mm 4 mps 753 mmHg 58%
    16:00 +5°C° 0 mm 3 mps 753 mmHg 62%
    17:00 +4°C° 0 mm 3 mps 753 mmHg 66%
    18:00 +4°C° 0 mm 2 mps 754 mmHg 70%
    19:00 +4°C° 0 mm 2 mps 754 mmHg 72%
    20:00 +2°C° 0 mm 3 mps 754 mmHg 75%
    21:00 +2°C° 0 mm 3 mps 755 mmHg 77%
    22:00 +1°C° 0 mm 3 mps 755 mmHg 78%
    23:00 +1°C° 0 mm 3 mps 755 mmHg 79%

    19 October, Saturday

    Time Temperature Precipitation Wind Pressure Humidity
    00:00 0°C° 0 mm 3 mps 755 mmHg 80%
    01:00 0°C° 0 mm 3 mps 755 mmHg 80%
    02:00 0°C° 0 mm 3 mps 755 mmHg 81%
    03:00 0°C° 0 mm 3 mps 755 mmHg 81%
    04:00 0°C° 0 mm 3 mps 755 mmHg 81%
    05:00 0°C° 0 mm 3 mps 755 mmHg 81%
    06:00 0°C° 0 mm 3 mps 755 mmHg 80%
    07:00 0°C° 0 mm 4 mps 755 mmHg 78%
    08:00 0°C° 0 mm 4 mps 755 mmHg 75%
    09:00 +1°C° 0 mm 4 mps 754 mmHg 72%
    10:00 +3°C° 0.1 mm 4 mps 754 mmHg 71%
    11:00 +3°C° 0.1 mm 4 mps 754 mmHg 69%
    12:00 +4°C° 0.1 mm 4 mps 754 mmHg 67%
    13:00 +4°C° 0.2 mm 4 mps 754 mmHg 71%
    14:00 +4°C° 0.2 mm 4 mps 754 mmHg 75%
    15:00 +4°C° 0.2 mm 4 mps 753 mmHg 80%
    16:00 +4°C° 0.1 mm 3 mps 753 mmHg 81%
    17:00 +4°C° 0.1 mm 3 mps 753 mmHg 83%
    18:00 +4°C° 0.1 mm 3 mps 753 mmHg 85%
    19:00 +4°C° 0 mm 3 mps 753 mmHg 87%
    20:00 +4°C° 0 mm 3 mps 753 mmHg 88%
    21:00 +4°C° 0 mm 3 mps 753 mmHg 90%
    22:00 +5°C° 0 mm 2 mps 753 mmHg 92%
    23:00 +5°C° 0 mm 2 mps 753 mmHg 93%
    Show more